Spokane Felts, WA

9:40 AM PDT on April 22, 2018 (GMT -0700)
Felts

Weather History for KSFF - December, 2012

Change the Weather History Date:

Tuesday, December 11, 2012

  Actual Average Record
Temperature  
Mean Temperature 38 °F 30 °F  
Max Temperature 42 °F 35 °F 61 °F (2014)
Min Temperature 34 °F 24 °F 10 °F (2000)
Degree Days  
Heating Degree Days 27 35  
Month to date heating degree days 248 376  
Since 1 July heating degree days 1521 1950  
Cooling Degree Days 0 0  
Month to date cooling degree days 0 0  
Year to date cooling degree days 509 406  
Moisture  
Dew Point 31 °F    
Average Humidity 75    
Maximum Humidity 89    
Minimum Humidity 60    
Precipitation  
Precipitation 0.01 in 0.08 in 0.24 in (1998)
Month to date precipitation 0.53 0.93  
Year to date precipitation 19.29 16.15  
Sea Level Pressure  
Sea Level Pressure 29.73 in    
Wind  
Wind Speed 2 mph (SSW)    
Max Wind Speed 9 mph    
Max Gust Speed 13 mph    
Visibility 10 miles    
Events Rain    
T = Trace of Precipitation, MM = Missing Value Source: NWS Daily Summary

Daily Weather History Graph

Daily Weather History Graph

Search for Another Location

Airport or City:

Astronomy

Dec. 11, 2012 Rise Set
Actual Time 7:28 AM PST 3:57 PM PST
Civil Twilight 6:52 AM PST 4:33 PM PST
Nautical Twilight 6:13 AM PST 5:12 PM PST
Astronomical Twilight 5:35 AM PST 5:50 PM PST
Moon 5:24 AM PST (12/11) 2:43 PM PST (12/11)
Length of Visible Light 9h 40m
Length of Day
8h 29m
Waning Crescent, 4% of the Moon is Illuminated
Dec 11
Waning Crescent
Dec 13
New
Dec 19
First Quarter
Dec 28
Full
Jan 4
Last Quarter

Hourly Weather History & Observations

Time (PST) Temp. Windchill Dew Point Humidity Pressure Visibility Wind Dir Wind Speed Gust Speed Precip Events Conditions
12:45 AM 35.6 °F - 30.2 °F 81% 29.97 in 9.0 mi Calm Calm - N/A   Overcast
12:53 AM 35.1 °F - 30.9 °F 85% 30.01 in 8.0 mi Calm Calm - N/A   Overcast
1:06 AM 35.6 °F 32.8 °F 30.2 °F 81% 29.96 in 9.0 mi ENE 3.5 mph - N/A   Overcast
1:53 AM 37.0 °F 32.4 °F 33.1 °F 86% 30.00 in 10.0 mi SSW 5.8 mph - N/A   Overcast
2:13 AM 37.4 °F 32.8 °F 33.8 °F 87% 29.93 in 10.0 mi SSW 5.8 mph - N/A   Overcast
2:53 AM 37.9 °F 33.5 °F 32.0 °F 79% 29.95 in 10.0 mi SSW 5.8 mph - N/A   Overcast
3:53 AM 37.9 °F 33.5 °F 32.0 °F 79% 29.90 in 10.0 mi SSW 5.8 mph - N/A   Mostly Cloudy
4:00 AM 37.4 °F 32.1 °F 32.0 °F 81% 29.87 in 10.0 mi SW 6.9 mph - N/A   Mostly Cloudy
4:53 AM 37.0 °F 34.5 °F 30.9 °F 79% 29.88 in 10.0 mi SSW 3.5 mph - N/A   Partly Cloudy
5:53 AM 37.9 °F - 30.9 °F 76% 29.84 in 10.0 mi Calm Calm - N/A   Clear
6:53 AM 37.9 °F - 30.0 °F 73% 29.82 in 10.0 mi Calm Calm - N/A   Clear
7:53 AM 39.0 °F 35.7 °F 28.9 °F 67% 29.78 in 10.0 mi SSW 4.6 mph - N/A   Scattered Clouds
8:53 AM 39.0 °F 35.7 °F 28.9 °F 67% 29.76 in 10.0 mi Variable 4.6 mph - N/A   Partly Cloudy
9:53 AM 39.9 °F - 28.0 °F 63% 29.74 in 10.0 mi Calm Calm - N/A   Overcast
10:53 AM 41.0 °F - 28.9 °F 62% 29.72 in 10.0 mi Calm Calm - N/A   Overcast
11:53 AM 41.0 °F - 28.9 °F 62% 29.68 in 10.0 mi Calm Calm - N/A   Overcast
12:53 PM 41.0 °F 38.0 °F 28.9 °F 62% 29.65 in 10.0 mi SSW 4.6 mph - N/A   Mostly Cloudy
1:53 PM 42.1 °F - 30.0 °F 62% 29.62 in 10.0 mi Calm Calm - N/A   Overcast
2:53 PM 41.0 °F - 32.0 °F 70% 29.61 in 10.0 mi Calm Calm - N/A   Overcast
3:53 PM 39.0 °F 35.7 °F 32.0 °F 76% 29.60 in 10.0 mi NNE 4.6 mph - N/A   Overcast
4:53 PM 37.9 °F - 30.9 °F 76% 29.60 in 10.0 mi Calm Calm - N/A   Overcast
5:53 PM 37.0 °F - 30.9 °F 79% 29.60 in 9.0 mi Calm Calm - 0.00 in Rain Light Rain
6:53 PM 37.0 °F - 32.0 °F 82% 29.59 in 10.0 mi Calm Calm - 0.00 in   Overcast
7:10 PM 37.4 °F - 33.8 °F 87% 29.56 in 10.0 mi Calm Calm - N/A   Overcast
7:38 PM 37.4 °F - 32.0 °F 81% 29.56 in 10.0 mi Calm Calm - N/A   Overcast
7:53 PM 37.9 °F - 32.0 °F 79% 29.59 in 10.0 mi Calm Calm - N/A   Overcast
8:27 PM 37.4 °F 34.9 °F 32.0 °F 81% 29.56 in 10.0 mi SW 3.5 mph - N/A   Overcast
8:53 PM 37.0 °F 34.5 °F 32.0 °F 82% 29.59 in 10.0 mi South 3.5 mph - N/A   Overcast
9:53 PM 37.0 °F - 32.0 °F 82% 29.59 in 10.0 mi Calm Calm - N/A   Overcast
10:53 PM 37.0 °F - 32.0 °F 82% 29.60 in 10.0 mi Calm Calm - N/A   Overcast
11:27 PM 37.4 °F - 32.0 °F 81% 29.57 in 8.0 mi Calm Calm - 0.00 in Rain Light Rain
11:53 PM 37.0 °F - 32.0 °F 82% 29.60 in 8.0 mi Calm Calm - 0.01 in Rain Light Rain